World > North America > United States > Montana   City of Billings, MT

Billings, Montana Regional Weather

Lat: 45.79N, Lon: 108.54W
Wx Zone: MTZ035
Feedback

Billings, MT Regional Weather

Expires:202007120700;;716033
ASUS45 KTFX 120610
RWRMT 
Montana Regional Weather Roundup
National Weather Service Great Falls MT
1200 AM MDT SUN JUL 12 2020

NOTE: "FAIR" indicates few or no clouds below 12,000 feet with no
significant weather and/or obstructions to visibility.


MTZ028>42-056>058-120700-
Southcentral and southeast Montana
  
CITY           SKY/WX    TMP DP  RH WIND       PRES   REMARKS
Baker          CLEAR     57  50  77 SE9       30.10F                  
Big Timber     CLEAR     64  46  52 NE6       30.07F                  
Billings       CLEAR     74  45  35 SE7       30.04F                  
Hardin         CLEAR     68  48  49 CALM      30.00                   
Harlowton      FAIR      59  46  61 N5        30.06F                  
Laurel           N/A     70  48  46 NE8       30.03F                  
Livingston     CLEAR     67  42  40 SE9       30.05F                  
Miles City     CLEAR     68  51  54 SE8       30.03S                  
$$

Regional Reports...Dakotas/MN
  
CITY           SKY/WX    TMP DP  RH WIND       PRES   REMARKS
Williston      CLEAR     62  55  77 SE7       30.06F                  
Minot          CLEAR     64  60  87 SW7       30.03F                  
Dickinson      CLEAR     57  54  89 SE5       30.07F                  
Beach          FAIR      54  54 100 SE6       30.10S                  
Crosby         FAIR      55  55 100 S6        30.05F                  
Hettinger      CLEAR     58  53  84 E5        30.11S                  
Tioga          FAIR      54  54 100 E5        30.08F                  
Watford City   FAIR      61  59  94 CALM      30.05F                  
Bismarck       CLEAR     64  60  87 SE3       30.06F                  
Grand Forks    CLEAR     63  60  90 W3        29.99S                  
Fargo          CLEAR     64  61  90 CALM      29.99S                  
Buffalo SD       N/A     63  47  55 CALM      30.09S                  
Rapid City     CLEAR     61  51  70 CALM      30.14S                  
Intl Falls     CLEAR     55  53  93 CALM      29.98S                  
Duluth         CLEAR     63  55  75 N7        29.95S                  
Minneapolis    PTCLDY    67  64  90 NW6       29.92S                  
$$

Regional Reports...WY/ID/WA
  
CITY           SKY/WX    TMP DP  RH WIND       PRES   REMARKS
Buffalo WY     CLEAR     66  43  43 W9        30.18S                  
Cody           CLEAR     63  44  50 S5        30.15F                  
Gillette       CLEAR     67  52  58 S12       30.13S                  
Powell         FAIR      63  39  42 W6        30.11F                  
Sheridan       CLEAR     61  48  62 S6        30.10F                  
Yellowstone La   N/A     45  34  65 NW3       30.36F                  
Boise          CLEAR     76  43  30 SE10      29.92S                  
Couer d'Alene  CLOUDY    69  47  45 SW7       29.94R                  
Idaho Falls    CLEAR     58  49  72 CALM      30.09S                  
Salmon         CLEAR     60  48  64 CALM      30.01S                  
Spokane        CLOUDY    70  31  23 W15       29.95R SMOKE            
Seattle        CLOUDY    61  55  81 SE7       30.15S                  
$$

Regional Reports...Alberta
  
CITY           SKY/WX    TMP DP  RH WIND       PRES   REMARKS
Calgary        PTCLDY    68  46  45 SW5       29.77F                  
Cardston         N/A     64  46  52 SW8         N/A                   
Crowsnest Pass   N/A     61  45  55 W3          N/A                   
Del Bonita       N/A     57  48  72 S8          N/A                   
Edmonton       CLEAR     61  57  88 E3        29.72F                  
Fort McMurray  CLOUDY    63  57  82 SE6       29.73F                  
High Level     CLOUDY    57  55  94 S5        29.68S                  
Lethbridge     PTCLDY    63  50  63 S13       29.82F                  
Lloydminster   CLEAR     64  57  77 SE12      29.80F                  
Medicine Hat   CLEAR     68  46  45 SW10      29.82F                  
Milk River       N/A     59  48  67 S6          N/A                   
Onefour          N/A     61  50  67 SE8         N/A                   
Peace River    MOCLDY    54  52  94 S2        29.78S                  
Pincher Creek  CLEAR     57  45  62 W6        29.87F                  
Raymond          N/A     66  50  55 S7          N/A                   
Waterton Gate    N/A     52  45  76 NE2         N/A                   
Fort Smith NWT MOCLDY    64  54  68 SE7       29.69F                  
$$

Regional Reports...Saskatchewan
  
CITY           SKY/WX    TMP DP  RH WIND       PRES   REMARKS
Assiniboia       N/A     59  54  82 SE5         N/A                   
Coronach         N/A     55  54  94 SE5         N/A                   
Cypress Hills    N/A     61  46  59 SE9         N/A                   
Estevan        CLEAR     59  55  88 S3        30.04S                  
La Ronge         N/A     66  54  63 S7          N/A                   
Moose Jaw        N/A     55  52  88 SE6         N/A                   
Regina         PTCLDY    61  55  82 SE8       30.00F                  
Rockglen         N/A     59  52  77 S9          N/A                   
Saskatoon      PTCLDY    64  54  68 SE10      29.91F                  
Swift Current  CLEAR     61  54  77 SE13G22   29.94F                  
Uranium City     N/A     63  55  77 E5          N/A                   
Val Marie        N/A     57  50  77 SW1         N/A                   
$$
  

SKY/WX - Weather  TMP - Temperature  DP - Dew Point  RH - Relative Humidity
WIND - Wind Direction/Speed PRES - Barometric Pressure VSB - Visibility
WCI - Wind Chill Index E13G22 Wind - East Wind 13 mph/Gusts of 22 mph
Billings Weather Map
UTC Time: 7/12/2020, 06:24
Your Time: